owner,sensor,date,latitude,longitude,vertical_datum,direction_of_sea_water_velocity,sea_water_speed,upward_sea_water_velocity,qcFlag 
TABS,ioos:station:TABS:H:1,2006-12-01T00:00:00Z,27.8674,-96.5433,2.0,198.2338755,11.72895989,-99999.0,'11111222,11111222,99999999' 
TABS,ioos:station:TABS:H:1,2006-12-01T00:30:00Z,27.8674,-96.5433,2.0,185.2150083,14.96193838,-99999.0,'11111222,11111222,99999999' 
TABS,ioos:station:TABS:H:1,2006-12-01T01:00:00Z,27.8674,-96.5433,2.0,166.2507727,9.67729301,-99999.0,'11133222,11111222,99999999' 
TABS,ioos:station:TABS:H:1,2006-12-01T01:30:00Z,27.8674,-96.5433,2.0,166.5751985,9.088327679,-99999.0,'11133222,11111222,99999999' 
TABS,ioos:station:TABS:H:1,2006-12-01T02:00:00Z,27.8674,-96.5433,2.0,188.4177883,7.035801305,-99999.0,'11133222,11111222,99999999' 
TABS,ioos:station:TABS:H:1,2006-12-01T02:30:00Z,27.8674,-96.5433,2.0,159.1960908,10.55838056,-99999.0,'11111222,11111222,99999999' 
TABS,ioos:station:TABS:H:1,2006-12-01T03:00:00Z,27.8674,-96.5433,2.0,225.9660252,2.934910561,-99999.0,'11133222,11111222,99999999' 
TABS,ioos:station:TABS:H:1,2006-12-01T03:30:00Z,27.8674,-96.5433,2.0,174.6556695,7.623135838,-99999.0,'11133222,11111222,99999999' 
TABS,ioos:station:TABS:H:1,2006-12-01T04:00:00Z,27.8674,-96.5433,2.0,139.1457965,9.09598263,-99999.0,'11133222,11111222,99999999' 
TABS,ioos:station:TABS:H:1,2006-12-01T04:30:00Z,27.8674,-96.5433,2.0,114.5685636,10.26978578,-99999.0,'11111222,11111222,99999999' 
TABS,ioos:station:TABS:H:1,2006-12-01T05:00:00Z,27.8674,-96.5433,2.0,124.0513282,7.03651192,-99999.0,'11133222,11111222,99999999' 
TABS,ioos:station:TABS:H:1,2006-12-01T05:30:00Z,27.8674,-96.5433,2.0,120.8966325,5.861825654,-99999.0,'11133222,11111222,99999999' 
TABS,ioos:station:TABS:H:1,2006-12-01T06:00:00Z,27.8674,-96.5433,2.0,153.5512549,8.801181739,-99999.0,'11133222,11111222,99999999' 
TABS,ioos:station:TABS:H:1,2006-12-01T06:30:00Z,27.8674,-96.5433,2.0,121.2275304,9.682912785,-99999.0,'11133222,11111222,99999999' 
TABS,ioos:station:TABS:H:1,2006-12-01T07:00:00Z,27.8674,-96.5433,2.0,115.2703926,15.83540337,-99999.0,'11111222,11111222,99999999' 
TABS,ioos:station:TABS:H:1,2006-12-01T07:30:00Z,27.8674,-96.5433,2.0,126.4987393,17.60236916,-99999.0,'11111222,11111222,99999999' 
TABS,ioos:station:TABS:H:1,2006-12-01T08:00:00Z,27.8674,-96.5433,2.0,103.6393973,10.85615494,-99999.0,'11111222,11111222,99999999' 
TABS,ioos:station:TABS:H:1,2006-12-01T08:30:00Z,27.8674,-96.5433,2.0,98.73176579,18.18071781,-99999.0,'11111222,11111222,99999999' 
TABS,ioos:station:TABS:H:1,2006-12-01T09:00:00Z,27.8674,-96.5433,2.0,94.49757873,14.66515939,-99999.0,'11111222,11111222,99999999' 
TABS,ioos:station:TABS:H:1,2006-12-01T09:30:00Z,27.8674,-96.5433,2.0,98.71314691,10.56189377,-99999.0,'11111222,11111222,99999999' 
TABS,ioos:station:TABS:H:1,2006-12-01T10:00:00Z,27.8674,-96.5433,2.0,118.40518,11.14136437,-99999.0,'11111222,11111222,99999999' 
TABS,ioos:station:TABS:H:1,2006-12-01T10:30:00Z,27.8674,-96.5433,2.0,69.49294559,4.110486589,-99999.0,'11133222,11111222,99999999' 
TABS,ioos:station:TABS:H:1,2006-12-01T11:00:00Z,27.8674,-96.5433,2.0,101.5705481,7.328935803,-99999.0,'11133222,11111222,99999999' 
TABS,ioos:station:TABS:H:1,2006-12-01T11:30:00Z,27.8674,-96.5433,2.0,80.08638174,12.31386617,-99999.0,'11111222,11111222,99999999' 
TABS,ioos:station:TABS:H:1,2006-12-01T12:00:00Z,27.8674,-96.5433,2.0,53.72436845,14.07875705,-99999.0,'11111222,11111222,99999999' 
TABS,ioos:station:TABS:H:1,2006-12-01T12:30:00Z,27.8674,-96.5433,2.0,62.49923062,12.32237802,-99999.0,'11111222,11111222,99999999' 
TABS,ioos:station:TABS:H:1,2006-12-01T13:00:00Z,27.8674,-96.5433,2.0,42.5013236,7.622788204,-99999.0,'11133222,11111222,99999999' 
TABS,ioos:station:TABS:H:1,2006-12-01T13:30:00Z,27.8674,-96.5433,2.0,53.03002146,11.44001748,-99999.0,'11111222,11111222,99999999' 
TABS,ioos:station:TABS:H:1,2006-12-01T14:00:00Z,27.8674,-96.5433,2.0,44.93107436,11.73798109,-99999.0,'11111222,11111222,99999999' 
TABS,ioos:station:TABS:H:1,2006-12-01T14:30:00Z,27.8674,-96.5433,2.0,26.68569491,8.506021397,-99999.0,'11133222,11111222,99999999' 
TABS,ioos:station:TABS:H:1,2006-12-01T15:00:00Z,27.8674,-96.5433,2.0,50.9045408,16.4283931,-99999.0,'11111222,11111222,99999999' 
TABS,ioos:station:TABS:H:1,2006-12-01T15:30:00Z,27.8674,-96.5433,2.0,43.17566776,14.65868343,-99999.0,'11111222,11111222,99999999' 
TABS,ioos:station:TABS:H:1,2006-12-01T16:00:00Z,27.8674,-96.5433,2.0,49.14787207,11.14490915,-99999.0,'11111222,11111222,99999999' 
TABS,ioos:station:TABS:H:1,2006-12-01T16:30:00Z,27.8674,-96.5433,2.0,49.51476704,15.54092983,-99999.0,'11111222,11111222,99999999' 
TABS,ioos:station:TABS:H:1,2006-12-01T17:00:00Z,27.8674,-96.5433,2.0,43.52530815,17.30863657,-99999.0,'11111222,11111222,99999999' 
TABS,ioos:station:TABS:H:1,2006-12-01T17:30:00Z,27.8674,-96.5433,2.0,48.45558778,24.05,-99999.0,'11111222,11111222,99999999' 
TABS,ioos:station:TABS:H:1,2006-12-01T18:00:00Z,27.8674,-96.5433,2.0,53.71056026,30.20954981,-99999.0,'11111222,11111222,99999999' 
TABS,ioos:station:TABS:H:1,2006-12-01T18:30:00Z,27.8674,-96.5433,2.0,52.66366742,28.73895266,-99999.0,'11111222,11111222,99999999' 
TABS,ioos:station:TABS:H:1,2006-12-01T19:00:00Z,27.8674,-96.5433,2.0,51.25365894,23.75874155,-99999.0,'11111222,11111222,99999999' 
TABS,ioos:station:TABS:H:1,2006-12-01T19:30:00Z,27.8674,-96.5433,2.0,55.47479111,21.1196804,-99999.0,'11111222,11111222,99999999' 
TABS,ioos:station:TABS:H:1,2006-12-01T20:00:00Z,27.8674,-96.5433,2.0,77.65864801,7.626231048,-99999.0,'11133222,11111222,99999999' 
TABS,ioos:station:TABS:H:1,2006-12-01T20:30:00Z,27.8674,-96.5433,2.0,76.58942839,7.329863573,-99999.0,'11133222,11111222,99999999' 
TABS,ioos:station:TABS:H:1,2006-12-01T21:00:00Z,27.8674,-96.5433,2.0,89.58854822,5.570143625,-99999.0,'11133222,11111222,99999999' 
TABS,ioos:station:TABS:H:1,2006-12-01T21:30:00Z,27.8674,-96.5433,2.0,77.28231666,10.85634377,-99999.0,'11111222,11111222,99999999' 
TABS,ioos:station:TABS:H:1,2006-12-01T22:00:00Z,27.8674,-96.5433,2.0,67.7650611,12.02411743,-99999.0,'11111222,11111222,99999999' 
TABS,ioos:station:TABS:H:1,2006-12-01T22:30:00Z,27.8674,-96.5433,2.0,55.48119897,19.94078484,-99999.0,'11111222,11111222,99999999' 
TABS,ioos:station:TABS:H:1,2006-12-01T23:00:00Z,27.8674,-96.5433,2.0,69.89431364,28.74151179,-99999.0,'11111222,11111222,99999999' 
TABS,ioos:station:TABS:H:1,2006-12-01T23:30:00Z,27.8674,-96.5433,2.0,65.67011833,27.86471783,-99999.0,'11111222,11111222,99999999' 
TABS,ioos:station:TABS:H:1,2006-12-02T00:00:00Z,27.8674,-96.5433,2.0,63.90463686,23.46161333,-99999.0,'11111222,11111222,99999999' 
TABS,ioos:station:TABS:H:1,2006-12-02T00:30:00Z,27.8674,-96.5433,2.0,61.81396035,26.40064014,-99999.0,'11111222,11111222,99999999' 
TABS,ioos:station:TABS:H:1,2006-12-02T01:00:00Z,27.8674,-96.5433,2.0,54.43762703,16.12819891,-99999.0,'11111222,11111222,99999999' 
TABS,ioos:station:TABS:H:1,2006-12-02T01:30:00Z,27.8674,-96.5433,2.0,36.82314151,14.66600491,-99999.0,'11111222,11111222,99999999' 
TABS,ioos:station:TABS:H:1,2006-12-02T02:00:00Z,27.8674,-96.5433,2.0,42.45190004,13.20059468,-99999.0,'11111222,11111222,99999999' 
TABS,ioos:station:TABS:H:1,2006-12-02T02:30:00Z,27.8674,-96.5433,2.0,41.08829196,13.78534367,-99999.0,'11111222,11111222,99999999' 
TABS,ioos:station:TABS:H:1,2006-12-02T03:00:00Z,27.8674,-96.5433,2.0,41.05632578,9.972607482,-99999.0,'11133222,11111222,99999999' 
TABS,ioos:station:TABS:H:1,2006-12-02T03:30:00Z,27.8674,-96.5433,2.0,64.95652474,9.095059098,-99999.0,'11133222,11111222,99999999' 
TABS,ioos:station:TABS:H:1,2006-12-02T04:00:00Z,27.8674,-96.5433,2.0,52.33220531,7.036682457,-99999.0,'11133222,11111222,99999999' 
TABS,ioos:station:TABS:H:1,2006-12-02T04:30:00Z,27.8674,-96.5433,2.0,59.01956766,5.866966848,-99999.0,'11133222,11111222,99999999' 
TABS,ioos:station:TABS:H:1,2006-12-02T05:00:00Z,27.8674,-96.5433,2.0,79.07347919,5.275642141,-99999.0,'11133222,11111222,99999999' 
TABS,ioos:station:TABS:H:1,2006-12-02T05:30:00Z,27.8674,-96.5433,2.0,86.41605759,14.07753174,-99999.0,'11111222,11111222,99999999' 
TABS,ioos:station:TABS:H:1,2006-12-02T06:00:00Z,27.8674,-96.5433,2.0,86.76195498,19.651374,-99999.0,'11111222,11111222,99999999' 
TABS,ioos:station:TABS:H:1,2006-12-02T06:30:00Z,27.8674,-96.5433,2.0,80.79151678,18.18435041,-99999.0,'11111222,11111222,99999999' 
TABS,ioos:station:TABS:H:1,2006-12-02T07:00:00Z,27.8674,-96.5433,2.0,82.56071237,18.76797805,-99999.0,'11111222,11111222,99999999' 
TABS,ioos:station:TABS:H:1,2006-12-02T07:30:00Z,27.8674,-96.5433,2.0,83.96179798,20.53392315,-99999.0,'11111222,11111222,99999999' 
TABS,ioos:station:TABS:H:1,2006-12-02T08:00:00Z,27.8674,-96.5433,2.0,85.7280905,19.06296147,-99999.0,'11111222,11111222,99999999' 
TABS,ioos:station:TABS:H:1,2006-12-02T08:30:00Z,27.8674,-96.5433,2.0,92.7355953,14.66671402,-99999.0,'11111222,11111222,99999999' 
TABS,ioos:station:TABS:H:1,2006-12-02T09:00:00Z,27.8674,-96.5433,2.0,83.61666578,14.66089356,-99999.0,'11111222,11111222,99999999' 
TABS,ioos:station:TABS:H:1,2006-12-02T09:30:00Z,27.8674,-96.5433,2.0,91.33221674,12.9034879,-99999.0,'11111222,11111222,99999999' 
TABS,ioos:station:TABS:H:1,2006-12-02T10:00:00Z,27.8674,-96.5433,2.0,94.17223125,13.19496874,-99999.0,'11111222,11111222,99999999' 
TABS,ioos:station:TABS:H:1,2006-12-02T10:30:00Z,27.8674,-96.5433,2.0,86.42367399,13.78684881,-99999.0,'11111222,11111222,99999999' 
TABS,ioos:station:TABS:H:1,2006-12-02T11:00:00Z,27.8674,-96.5433,2.0,87.11321563,12.90637827,-99999.0,'11111222,11111222,99999999' 
TABS,ioos:station:TABS:H:1,2006-12-02T11:30:00Z,27.8674,-96.5433,2.0,92.39407213,11.7302387,-99999.0,'11111222,11111222,99999999' 
TABS,ioos:station:TABS:H:1,2006-12-02T12:00:00Z,27.8674,-96.5433,2.0,90.3038377,13.2001856,-99999.0,'11111222,11111222,99999999' 
TABS,ioos:station:TABS:H:1,2006-12-02T12:30:00Z,27.8674,-96.5433,2.0,113.4821089,11.14280037,-99999.0,'11111222,11111222,99999999' 
TABS,ioos:station:TABS:H:1,2006-12-02T13:00:00Z,27.8674,-96.5433,2.0,122.2755688,6.741661516,-99999.0,'11133222,11111222,99999999' 
TABS,ioos:station:TABS:H:1,2006-12-02T13:30:00Z,27.8674,-96.5433,2.0,147.2489895,8.798727181,-99999.0,'11133222,11111222,99999999' 
TABS,ioos:station:TABS:H:1,2006-12-02T14:00:00Z,27.8674,-96.5433,2.0,124.42406,9.092282442,-99999.0,'11133222,11111222,99999999' 
TABS,ioos:station:TABS:H:1,2006-12-02T14:30:00Z,27.8674,-96.5433,2.0,147.9341337,7.044749818,-99999.0,'11133222,11111222,99999999' 
TABS,ioos:station:TABS:H:1,2006-12-02T15:00:00Z,27.8674,-96.5433,2.0,94.92709843,0.582151183,-99999.0,'11133222,11111222,99999999' 
TABS,ioos:station:TABS:H:1,2006-12-02T15:30:00Z,27.8674,-96.5433,2.0,208.4365192,10.26903111,-99999.0,'11111222,11111222,99999999' 
TABS,ioos:station:TABS:H:1,2006-12-02T16:00:00Z,27.8674,-96.5433,2.0,139.1559417,2.048926548,-99999.0,'11133222,11111222,99999999' 
TABS,ioos:station:TABS:H:1,2006-12-02T16:30:00Z,27.8674,-96.5433,2.0,181.7354901,2.641211843,-99999.0,'11133222,11111222,99999999' 
TABS,ioos:station:TABS:H:1,2006-12-02T17:00:00Z,27.8674,-96.5433,2.0,280.7392929,0.590338886,-99999.0,'11133222,11111222,99999999' 
TABS,ioos:station:TABS:H:1,2006-12-02T17:30:00Z,27.8674,-96.5433,2.0,261.7588865,1.465127981,-99999.0,'11133222,11111222,99999999' 
TABS,ioos:station:TABS:H:1,2006-12-02T18:00:00Z,27.8674,-96.5433,2.0,207.9859439,2.344120304,-99999.0,'11133222,11111222,99999999' 
TABS,ioos:station:TABS:H:1,2006-12-02T18:30:00Z,27.8674,-96.5433,2.0,247.0675323,7.622420875,-99999.0,'11133222,11111222,99999999' 
TABS,ioos:station:TABS:H:1,2006-12-02T19:00:00Z,27.8674,-96.5433,2.0,209.8216707,6.454773427,-99999.0,'11133222,11111222,99999999' 
TABS,ioos:station:TABS:H:1,2006-12-02T19:30:00Z,27.8674,-96.5433,2.0,240.7553648,8.801840717,-99999.0,'11133222,11111222,99999999' 
TABS,ioos:station:TABS:H:1,2006-12-02T20:00:00Z,27.8674,-96.5433,2.0,198.2285967,3.516475508,-99999.0,'11133222,11111222,99999999' 
TABS,ioos:station:TABS:H:1,2006-12-02T20:30:00Z,27.8674,-96.5433,2.0,216.1860477,8.214584591,-99999.0,'11133222,11111222,99999999' 
TABS,ioos:station:TABS:H:1,2006-12-02T21:00:00Z,27.8674,-96.5433,2.0,247.8064864,7.333280303,-99999.0,'11133222,11111222,99999999' 
TABS,ioos:station:TABS:H:1,2006-12-02T21:30:00Z,27.8674,-96.5433,2.0,191.8842287,7.040923235,-99999.0,'11133222,11111222,99999999' 
TABS,ioos:station:TABS:H:1,2006-12-02T22:00:00Z,27.8674,-96.5433,2.0,227.3856228,6.454409346,-99999.0,'11133222,11111222,99999999' 
TABS,ioos:station:TABS:H:1,2006-12-02T22:30:00Z,27.8674,-96.5433,2.0,209.4509683,9.681038167,-99999.0,'11133222,11111222,99999999' 
TABS,ioos:station:TABS:H:1,2006-12-02T23:00:00Z,27.8674,-96.5433,2.0,248.5293145,6.748281263,-99999.0,'11133222,11111222,99999999' 
TABS,ioos:station:TABS:H:1,2006-12-02T23:30:00Z,27.8674,-96.5433,2.0,236.566264,5.572019383,-99999.0,'11133222,11111222,99999999' 
TABS,ioos:station:TABS:H:1,2006-12-03T00:00:00Z,27.8674,-96.5433,2.0,208.7338031,8.507625991,-99999.0,'11133222,11111222,99999999' 
TABS,ioos:station:TABS:H:1,2006-12-03T00:30:00Z,27.8674,-96.5433,2.0,205.2731858,6.745694923,-99999.0,'11133222,11111222,99999999' 
TABS,ioos:station:TABS:H:1,2006-12-03T01:00:00Z,27.8674,-96.5433,2.0,228.1149257,14.96327838,-99999.0,'11111222,11111222,99999999' 
TABS,ioos:station:TABS:H:1,2006-12-03T01:30:00Z,27.8674,-96.5433,2.0,230.921238,12.61136789,-99999.0,'11111222,11111222,99999999' 
TABS,ioos:station:TABS:H:1,2006-12-03T02:00:00Z,27.8674,-96.5433,2.0,235.4835936,11.73590218,-99999.0,'11111222,11111222,99999999' 
TABS,ioos:station:TABS:H:1,2006-12-03T02:30:00Z,27.8674,-96.5433,2.0,228.8181263,12.31685837,-99999.0,'11111222,11111222,99999999' 
TABS,ioos:station:TABS:H:1,2006-12-03T03:00:00Z,27.8674,-96.5433,2.0,224.2666107,14.36958594,-99999.0,'11111222,11111222,99999999' 
TABS,ioos:station:TABS:H:1,2006-12-03T03:30:00Z,27.8674,-96.5433,2.0,236.9014872,15.84030934,-99999.0,'11111222,11111222,99999999' 
TABS,ioos:station:TABS:H:1,2006-12-03T04:00:00Z,27.8674,-96.5433,2.0,229.8812791,10.55295693,-99999.0,'11111222,11111222,99999999' 
TABS,ioos:station:TABS:H:1,2006-12-03T04:30:00Z,27.8674,-96.5433,2.0,228.8209559,14.96028409,-99999.0,'11111222,11111222,99999999' 
TABS,ioos:station:TABS:H:1,2006-12-03T05:00:00Z,27.8674,-96.5433,2.0,219.6722201,13.78448766,-99999.0,'11111222,11111222,99999999' 
TABS,ioos:station:TABS:H:1,2006-12-03T05:30:00Z,27.8674,-96.5433,2.0,220.0219798,17.60263617,-99999.0,'11111222,11111222,99999999' 
TABS,ioos:station:TABS:H:1,2006-12-03T06:00:00Z,27.8674,-96.5433,2.0,233.0239812,14.082024,-99999.0,'11111222,11111222,99999999' 
TABS,ioos:station:TABS:H:1,2006-12-03T06:30:00Z,27.8674,-96.5433,2.0,226.7117345,13.49054854,-99999.0,'11111222,11111222,99999999' 
TABS,ioos:station:TABS:H:1,2006-12-03T07:00:00Z,27.8674,-96.5433,2.0,222.1320806,15.54753357,-99999.0,'11111222,11111222,99999999' 
TABS,ioos:station:TABS:H:1,2006-12-03T07:30:00Z,27.8674,-96.5433,2.0,213.3286314,14.96056149,-99999.0,'11111222,11111222,99999999' 
TABS,ioos:station:TABS:H:1,2006-12-03T08:00:00Z,27.8674,-96.5433,2.0,228.8204335,16.12960012,-99999.0,'11111222,11111222,99999999' 
TABS,ioos:station:TABS:H:1,2006-12-03T08:30:00Z,27.8674,-96.5433,2.0,218.2734754,18.77563581,-99999.0,'11111222,11111222,99999999' 
TABS,ioos:station:TABS:H:1,2006-12-03T09:00:00Z,27.8674,-96.5433,2.0,210.1896669,16.12748275,-99999.0,'11111222,11111222,99999999' 
TABS,ioos:station:TABS:H:1,2006-12-03T09:30:00Z,27.8674,-96.5433,2.0,205.9670127,16.71775404,-99999.0,'11111222,11111222,99999999' 
TABS,ioos:station:TABS:H:1,2006-12-03T10:00:00Z,27.8674,-96.5433,2.0,212.9886567,19.94573889,-99999.0,'11111222,11111222,99999999' 
TABS,ioos:station:TABS:H:1,2006-12-03T10:30:00Z,27.8674,-96.5433,2.0,226.3469667,23.75828487,-99999.0,'11111222,11111222,99999999' 
TABS,ioos:station:TABS:H:1,2006-12-03T11:00:00Z,27.8674,-96.5433,2.0,222.4883269,16.13753389,-99999.0,'11111222,11111222,99999999' 
TABS,ioos:station:TABS:H:1,2006-12-03T11:30:00Z,27.8674,-96.5433,2.0,223.541704,21.12104638,-99999.0,'11111222,11111222,99999999' 
TABS,ioos:station:TABS:H:1,2006-12-03T12:00:00Z,27.8674,-96.5433,2.0,230.9235774,28.15887249,-99999.0,'11111222,11111222,99999999' 
TABS,ioos:station:TABS:H:1,2006-12-03T12:30:00Z,27.8674,-96.5433,2.0,239.3709534,24.92774559,-99999.0,'11111222,11111222,99999999' 
TABS,ioos:station:TABS:H:1,2006-12-03T13:00:00Z,27.8674,-96.5433,2.0,219.3248541,14.6594577,-99999.0,'11111222,11111222,99999999' 
TABS,ioos:station:TABS:H:1,2006-12-03T13:30:00Z,27.8674,-96.5433,2.0,219.3243417,22.88099648,-99999.0,'11111222,11111222,99999999' 
TABS,ioos:station:TABS:H:1,2006-12-03T14:00:00Z,27.8674,-96.5433,2.0,224.2381487,22.87692506,-99999.0,'11111222,11111222,99999999' 
TABS,ioos:station:TABS:H:1,2006-12-03T14:30:00Z,27.8674,-96.5433,2.0,221.0802071,17.89630409,-99999.0,'11111222,11111222,99999999' 
TABS,ioos:station:TABS:H:1,2006-12-03T15:00:00Z,27.8674,-96.5433,2.0,218.2744911,12.31770271,-99999.0,'11111222,11111222,99999999' 
TABS,ioos:station:TABS:H:1,2006-12-03T15:30:00Z,27.8674,-96.5433,2.0,217.930942,19.65137145,-99999.0,'11111222,11111222,99999999' 
TABS,ioos:station:TABS:H:1,2006-12-03T16:00:00Z,27.8674,-96.5433,2.0,221.4484874,21.11940577,-99999.0,'11111222,11111222,99999999' 
TABS,ioos:station:TABS:H:1,2006-12-03T16:30:00Z,27.8674,-96.5433,2.0,238.6814734,20.23893525,-99999.0,'11111222,11111222,99999999' 
TABS,ioos:station:TABS:H:1,2006-12-03T17:00:00Z,27.8674,-96.5433,2.0,223.2074458,21.70465388,-99999.0,'11111222,11111222,99999999' 
TABS,ioos:station:TABS:H:1,2006-12-03T17:30:00Z,27.8674,-96.5433,2.0,228.464878,20.23904395,-99999.0,'11111222,11111222,99999999' 
TABS,ioos:station:TABS:H:1,2006-12-03T18:00:00Z,27.8674,-96.5433,2.0,230.5728271,20.53244262,-99999.0,'11111222,11111222,99999999' 
TABS,ioos:station:TABS:H:1,2006-12-03T18:30:00Z,27.8674,-96.5433,2.0,238.6872442,14.37356254,-99999.0,'11111222,11111222,99999999' 
TABS,ioos:station:TABS:H:1,2006-12-03T19:00:00Z,27.8674,-96.5433,2.0,229.8680053,13.4978665,-99999.0,'11111222,11111222,99999999' 
TABS,ioos:station:TABS:H:1,2006-12-03T19:30:00Z,27.8674,-96.5433,2.0,229.1812311,11.73385273,-99999.0,'11111222,11111222,99999999' 
TABS,ioos:station:TABS:H:1,2006-12-03T20:00:00Z,27.8674,-96.5433,2.0,227.7639013,15.24882291,-99999.0,'11111222,11111222,99999999' 
TABS,ioos:station:TABS:H:1,2006-12-03T20:30:00Z,27.8674,-96.5433,2.0,218.9689985,20.52777874,-99999.0,'11111222,11111222,99999999' 
TABS,ioos:station:TABS:H:1,2006-12-03T21:00:00Z,27.8674,-96.5433,2.0,222.8195088,13.19709438,-99999.0,'11111222,11111222,99999999' 
TABS,ioos:station:TABS:H:1,2006-12-03T21:30:00Z,27.8674,-96.5433,2.0,233.0440101,12.02601347,-99999.0,'11111222,11111222,99999999' 
TABS,ioos:station:TABS:H:1,2006-12-03T22:00:00Z,27.8674,-96.5433,2.0,242.1723478,13.19600318,-99999.0,'11111222,11111222,99999999' 
TABS,ioos:station:TABS:H:1,2006-12-03T22:30:00Z,27.8674,-96.5433,2.0,228.4686388,16.71126865,-99999.0,'11111222,11111222,99999999' 
TABS,ioos:station:TABS:H:1,2006-12-03T23:00:00Z,27.8674,-96.5433,2.0,224.6050018,12.31809238,-99999.0,'11111222,11111222,99999999' 
TABS,ioos:station:TABS:H:1,2006-12-03T23:30:00Z,27.8674,-96.5433,2.0,211.2405111,15.25154746,-99999.0,'11111222,11111222,99999999' 
TABS,ioos:station:TABS:H:1,2006-12-04T00:00:00Z,27.8674,-96.5433,2.0,207.028412,14.36944327,-99999.0,'11111222,11111222,99999999' 
TABS,ioos:station:TABS:H:1,2006-12-04T00:30:00Z,27.8674,-96.5433,2.0,209.127115,21.40715768,-99999.0,'11111222,11111222,99999999' 
TABS,ioos:station:TABS:H:1,2006-12-04T01:00:00Z,27.8674,-96.5433,2.0,210.5321207,23.46338637,-99999.0,'11111222,11111222,99999999' 
TABS,ioos:station:TABS:H:1,2006-12-04T01:30:00Z,27.8674,-96.5433,2.0,227.0612724,19.65614917,-99999.0,'11111222,11111222,99999999' 
TABS,ioos:station:TABS:H:1,2006-12-04T02:00:00Z,27.8674,-96.5433,2.0,229.8779969,15.54903534,-99999.0,'11111222,11111222,99999999' 
TABS,ioos:station:TABS:H:1,2006-12-04T02:30:00Z,27.8674,-96.5433,2.0,217.9273945,19.06724941,-99999.0,'11111222,11111222,99999999' 
TABS,ioos:station:TABS:H:1,2006-12-04T03:00:00Z,27.8674,-96.5433,2.0,234.7779861,13.48958116,-99999.0,'11111222,11111222,99999999' 
TABS,ioos:station:TABS:H:1,2006-12-04T03:30:00Z,27.8674,-96.5433,2.0,246.0569854,14.6615995,-99999.0,'11111222,11111222,99999999' 
TABS,ioos:station:TABS:H:1,2006-12-04T04:00:00Z,27.8674,-96.5433,2.0,221.7981534,17.599071,-99999.0,'11111222,11111222,99999999' 
TABS,ioos:station:TABS:H:1,2006-12-04T04:30:00Z,27.8674,-96.5433,2.0,251.3400958,12.90851657,-99999.0,'11111222,11111222,99999999' 
TABS,ioos:station:TABS:H:1,2006-12-04T05:00:00Z,27.8674,-96.5433,2.0,230.9151023,14.95717219,-99999.0,'11111222,11111222,99999999' 
TABS,ioos:station:TABS:H:1,2006-12-04T05:30:00Z,27.8674,-96.5433,2.0,259.7683128,11.14725527,-99999.0,'11111222,11111222,99999999' 
TABS,ioos:station:TABS:H:1,2006-12-04T06:00:00Z,27.8674,-96.5433,2.0,210.8903614,16.12774008,-99999.0,'11111222,11111222,99999999' 
TABS,ioos:station:TABS:H:1,2006-12-04T06:30:00Z,27.8674,-96.5433,2.0,218.6281002,19.94339239,-99999.0,'11111222,11111222,99999999' 
TABS,ioos:station:TABS:H:1,2006-12-04T07:00:00Z,27.8674,-96.5433,2.0,221.4417236,17.88892674,-99999.0,'11111222,11111222,99999999' 
TABS,ioos:station:TABS:H:1,2006-12-04T07:30:00Z,27.8674,-96.5433,2.0,208.4283415,17.60269298,-99999.0,'11111222,11111222,99999999' 
TABS,ioos:station:TABS:H:1,2006-12-04T08:00:00Z,27.8674,-96.5433,2.0,210.886169,15.25309805,-99999.0,'11111222,11111222,99999999' 
TABS,ioos:station:TABS:H:1,2006-12-04T08:30:00Z,27.8674,-96.5433,2.0,216.5005636,15.83632849,-99999.0,'11111222,11111222,99999999' 
TABS,ioos:station:TABS:H:1,2006-12-04T09:00:00Z,27.8674,-96.5433,2.0,225.6540478,11.1447297,-99999.0,'11111222,11111222,99999999' 
TABS,ioos:station:TABS:H:1,2006-12-04T09:30:00Z,27.8674,-96.5433,2.0,221.4520794,17.5982556,-99999.0,'11111222,11111222,99999999' 
TABS,ioos:station:TABS:H:1,2006-12-04T10:00:00Z,27.8674,-96.5433,2.0,210.1928769,17.59734639,-99999.0,'11111222,11111222,99999999' 
TABS,ioos:station:TABS:H:1,2006-12-04T10:30:00Z,27.8674,-96.5433,2.0,218.9884329,18.77083376,-99999.0,'11111222,11111222,99999999' 
TABS,ioos:station:TABS:H:1,2006-12-04T11:00:00Z,27.8674,-96.5433,2.0,219.6903384,21.70229481,-99999.0,'11111222,11111222,99999999' 
TABS,ioos:station:TABS:H:1,2006-12-04T11:30:00Z,27.8674,-96.5433,2.0,219.6698294,14.08281577,-99999.0,'11111222,11111222,99999999' 
TABS,ioos:station:TABS:H:1,2006-12-04T12:00:00Z,27.8674,-96.5433,2.0,221.0859931,24.34589288,-99999.0,'11111222,11111222,99999999' 
TABS,ioos:station:TABS:H:1,2006-12-04T12:30:00Z,27.8674,-96.5433,2.0,212.6345453,22.28886045,-99999.0,'11111222,11111222,99999999' 
TABS,ioos:station:TABS:H:1,2006-12-04T13:00:00Z,27.8674,-96.5433,2.0,214.0345133,16.13374724,-99999.0,'11111222,11111222,99999999' 
TABS,ioos:station:TABS:H:1,2006-12-04T13:30:00Z,27.8674,-96.5433,2.0,226.3379225,9.385867035,-99999.0,'11133222,11111222,99999999' 
TABS,ioos:station:TABS:H:1,2006-12-04T14:00:00Z,27.8674,-96.5433,2.0,222.156994,10.26568069,-99999.0,'11111222,11111222,99999999' 
TABS,ioos:station:TABS:H:1,2006-12-04T14:30:00Z,27.8674,-96.5433,2.0,195.3964902,6.741965589,-99999.0,'11133222,11111222,99999999' 
TABS,ioos:station:TABS:H:1,2006-12-04T15:00:00Z,27.8674,-96.5433,2.0,215.1117186,16.4297322,-99999.0,'11111222,11111222,99999999' 
TABS,ioos:station:TABS:H:1,2006-12-04T15:30:00Z,27.8674,-96.5433,2.0,227.0491967,17.59700259,-99999.0,'11111222,11111222,99999999' 
TABS,ioos:station:TABS:H:1,2006-12-04T16:00:00Z,27.8674,-96.5433,2.0,222.8501865,15.83619272,-99999.0,'11111222,11111222,99999999' 
TABS,ioos:station:TABS:H:1,2006-12-04T16:30:00Z,27.8674,-96.5433,2.0,240.072084,19.0617549,-99999.0,'11111222,11111222,99999999' 
TABS,ioos:station:TABS:H:1,2006-12-04T17:00:00Z,27.8674,-96.5433,2.0,232.3312538,19.94793724,-99999.0,'11111222,11111222,99999999' 
TABS,ioos:station:TABS:H:1,2006-12-04T17:30:00Z,27.8674,-96.5433,2.0,243.5640349,15.83587383,-99999.0,'11111222,11111222,99999999' 
TABS,ioos:station:TABS:H:1,2006-12-04T18:00:00Z,27.8674,-96.5433,2.0,234.4619844,17.89283656,-99999.0,'11111222,11111222,99999999' 